Weather Roundup
Issued by NWS Chicago, IL

Home | Current Version | Previous Version | Text Only | Print | Product List | Glossary Off
Versions: 1 2 3 4 5 6 7 8 9 10 11 12 13 14 15 16 17 18 19 20 21 22 23 24 25 26 27 28 29 30 31 32 33 34 35 36 37 38 39 40 41 42 43 44 45 46 47 48 49 50

000
NZUS59 KLOT 251558
HRRLOT

CHICAGO AREA WEATHER ROUNDUP
NATIONAL WEATHER SERVICE CHICAGO/ROMEOVILLE IL
1000 AM CST SUN JAN 25 2015

NOTE: "FAIR" INDICATES FEW OR NO CLOUDS BELOW 12,000 FEET WITH NO
SIGNIFICANT WEATHER AND/OR OBSTRUCTIONS TO VISIBILITY.

* THESE STATIONS ARE NOT UNDER NWS QUALITY CONTROL. THEY ALSO MAY NOT
  REPORT WEATHER SUCH AS PRECIPITATION OR FOG.

ILZ005-006-012>014-019>023-251700-
NORTHEAST ILLINOIS

CITY           SKY/WX    TMP DP  RH WIND       PRES   REMARKS
OHARE          LGT SNOW  31  29  92 NE15G26   29.78R FOG     WCI  20
MIDWAY         LGT SNOW  34  32  92 NE21      29.77R FOG     WCI  22
AURORA         LGT SNOW  32  28  85 NE18      29.75R VSB 3/4 WCI  20
WAUKEGAN       LGT SNOW  28  25  86 N14G23    29.82S FOG     WCI  17
DUPAGE AIRPORT LGT SNOW  31  29  92 NE17G24   29.76R FOG     WCI  19
WHEELING       LGT SNOW  30  28  92 NE17      29.82R VSB 1   WCI  18
NORTHERLY IS     N/A     32  31  96 NE21        N/A  WCI  20
$$

WIZ051-052-058>065-066-070>072-251700-
SOUTHEAST WISCONSIN

CITY           SKY/WX    TMP DP  RH WIND       PRES   REMARKS
MILWAUKEE      CLOUDY    25  15  66 NE18G32   29.89R WCI  11
KENOSHA*       FLURRIES  28  21  75 NE18G28   29.85R WCI  15
RACINE*        CLOUDY    27  19  72 NE17G28   29.89R WCI  14
WAUKESHA       CLOUDY    23  16  74 NE17G29   29.89R WCI   9
$$

INZ001>003-010>013-019-020-251700-
NORTHWEST INDIANA

CITY           SKY/WX    TMP DP  RH WIND       PRES   REMARKS
GARY*          LGT SNOW  34  30  86 NE14G26   29.76R WCI  24
MICHIGAN CITY* NOT AVBL
RENSSELAER*    NOT AVBL
$$

LMZ740>746-251700-
SOUTHERN LAKE MICHIGAN

STATION/POSITION TIME  SKY/WX   TEMP WIND        PRES    VSBY
                                AIR  DIR/SP/G
                 (UTC)          (F)  (DEG/KT/KT) (MB)    (MI)
HARRISON CRIB    1500            32   40/ 25/ 29   N/A
BURNHAM HARBOR   1500            33   40/ 16/ 21   N/A
CALUMET HARBOR   1500            32   30/ 18/ 21   N/A
BURNS HARBOR     NOT AVBL
MICHIGAN CITY    1500            33   30/ 14/ 16   N/A
$$

ABBREVIATIONS USED IN REMARKS
   TC - TEMPERATURE IN CELSIUS
  WCI - WIND CHILL INDEX
   HX - HEAT INDEX
  VSB - VISIBILITY
$$


USA.gov is the U.S. government's official web portal to all federal, state and local government web resources and services.